Time,TemperatureF,DewpointF,PressureIn,WindDirection,WindDirectionDegrees,WindSpeedMPH,WindSpeedGustMPH,Humidity,HourlyPrecipIn,Conditions,Clouds,dailyrainin,SoftwareType,DateUTC
2013-09-14 00:01:00,62.6,99.9,29.75,ENE,67,0.1,3.5,0,0.00,CLR,SKC,0.00,WeatherDisplay:10.37,2013-09-14 04:01:00,
2013-09-14 00:02:00,62.6,99.9,29.75,North,360,0.2,2.3,0,0.00,CLR,SKC,0.00,WeatherDisplay:10.37,2013-09-14 04:02:00,
2013-09-14 00:03:00,62.6,99.9,29.75,WNW,292,0.0,3.5,0,0.00,CLR,SKC,0.00,WeatherDisplay:10.37,2013-09-14 04:03:00,
2013-09-14 00:06:00,62.6,99.9,29.75,WNW,292,2.1,3.5,0,0.00,CLR,SKC,0.00,WeatherDisplay:10.37,2013-09-14 04:06:00,
2013-09-14 00:07:00,62.6,99.9,29.75,WNW,292,0.0,3.5,0,0.00,CLR,SKC,0.00,WeatherDisplay:10.37,2013-09-14 04:07:00,
2013-09-14 00:12:00,62.6,99.9,29.76,NNE,22,0.4,3.5,0,0.00,CLR,SKC,0.00,WeatherDisplay:10.37,2013-09-14 04:12:00,
2013-09-14 00:17:00,62.6,99.9,29.76,NNE,22,1.2,3.5,0,0.00,CLR,SKC,0.00,WeatherDisplay:10.37,2013-09-14 04:17:00,
2013-09-14 00:22:00,62.6,99.9,29.76,NNW,337,0.5,0.0,0,0.00,CLR,SKC,0.00,WeatherDisplay:10.37,2013-09-14 04:22:00,
2013-09-14 00:27:00,62.6,99.9,29.76,NNW,337,0.6,3.5,0,0.00,CLR,SKC,0.00,WeatherDisplay:10.37,2013-09-14 04:27:00,
2013-09-14 00:32:00,62.6,99.9,29.76,NNW,337,0.1,1.2,0,0.00,CLR,SKC,0.00,WeatherDisplay:10.37,2013-09-14 04:32:00,
2013-09-14 00:37:00,62.6,99.9,29.76,NW,315,0.3,3.5,0,0.00,CLR,SKC,0.00,WeatherDisplay:10.37,2013-09-14 04:37:00,
2013-09-14 00:42:00,62.6,99.9,29.76,NW,315,0.4,0.0,0,0.00,CLR,SKC,0.00,WeatherDisplay:10.37,2013-09-14 04:42:00,
2013-09-14 00:47:00,62.6,99.9,29.76,NNE,22,1.0,4.0,0,0.00,CLR,SKC,0.00,WeatherDisplay:10.37,2013-09-14 04:47:00,
2013-09-14 00:52:00,62.6,99.9,29.76,WNW,292,2.4,4.6,0,0.00,CLR,SKC,0.00,WeatherDisplay:10.37,2013-09-14 04:52:00,
2013-09-14 00:57:00,62.6,99.9,29.76,NNW,337,1.1,3.5,0,0.00,CLR,SKC,0.00,WeatherDisplay:10.37,2013-09-14 04:57:00,
2013-09-14 01:02:00,62.6,99.9,29.77,NW,315,1.7,5.8,0,0.00,CLR,SKC,0.00,WeatherDisplay:10.37,2013-09-14 05:02:00,
2013-09-14 01:07:00,62.6,99.9,29.77,WSW,247,0.0,2.3,0,0.00,CLR,SKC,0.00,WeatherDisplay:10.37,2013-09-14 05:07:00,
2013-09-14 01:12:00,62.6,99.9,29.77,NNW,337,0.6,0.0,0,0.00,CLR,SKC,0.00,WeatherDisplay:10.37,2013-09-14 05:12:00,
2013-09-14 01:17:00,62.6,99.9,29.77,North,360,1.1,3.5,0,0.00,CLR,SKC,0.00,WeatherDisplay:10.37,2013-09-14 05:17:00,
2013-09-14 01:22:00,62.6,99.9,29.77,NW,315,0.0,3.5,0,0.00,CLR,SKC,0.00,WeatherDisplay:10.37,2013-09-14 05:22:00,
2013-09-14 01:27:00,62.6,99.9,29.77,WNW,292,0.1,3.5,0,0.00,CLR,SKC,0.00,WeatherDisplay:10.37,2013-09-14 05:27:00,
2013-09-14 01:32:00,62.6,99.9,29.78,North,360,2.8,3.5,0,0.00,CLR,SKC,0.00,WeatherDisplay:10.37,2013-09-14 05:32:00,
2013-09-14 01:37:00,62.6,99.9,29.78,NE,45,1.0,5.0,0,0.00,CLR,SKC,0.00,WeatherDisplay:10.37,2013-09-14 05:37:00,
2013-09-14 01:42:00,62.6,99.9,29.78,NNW,337,1.6,1.6,0,0.00,CLR,SKC,0.00,WeatherDisplay:10.37,2013-09-14 05:42:00,
2013-09-14 01:47:00,62.6,99.9,29.78,NW,315,2.8,3.5,0,0.00,CLR,SKC,0.00,WeatherDisplay:10.37,2013-09-14 05:47:00,
2013-09-14 01:52:00,62.6,99.9,29.79,North,360,0.3,4.6,0,0.00,CLR,SKC,0.00,WeatherDisplay:10.37,2013-09-14 05:52:00,
2013-09-14 01:57:00,62.6,99.9,29.79,WSW,247,1.6,3.5,0,0.00,CLR,SKC,0.00,WeatherDisplay:10.37,2013-09-14 05:57:00,
2013-09-14 02:02:00,62.6,99.9,29.78,ENE,67,2.9,4.0,0,0.00,CLR,SKC,0.00,WeatherDisplay:10.37,2013-09-14 06:02:00,
2013-09-14 02:07:00,61.6,99.9,29.78,NE,45,0.3,3.5,0,0.00,CLR,SKC,0.00,WeatherDisplay:10.37,2013-09-14 06:07:00,
2013-09-14 02:12:00,61.6,99.9,29.78,NW,315,0.5,3.5,0,0.00,CLR,SKC,0.00,WeatherDisplay:10.37,2013-09-14 06:12:00,
2013-09-14 02:17:00,61.6,99.9,29.78,WNW,292,0.0,2.3,0,0.00,CLR,SKC,0.00,WeatherDisplay:10.37,2013-09-14 06:17:00,
2013-09-14 02:22:00,61.6,99.9,29.79,North,360,0.0,0.0,0,0.00,CLR,SKC,0.00,WeatherDisplay:10.37,2013-09-14 06:22:00,
2013-09-14 02:27:00,61.6,99.9,29.79,WNW,292,2.4,2.4,0,0.00,CLR,SKC,0.00,WeatherDisplay:10.37,2013-09-14 06:27:00,
2013-09-14 02:32:00,61.6,99.9,29.79,North,360,2.0,4.0,0,0.00,CLR,SKC,0.00,WeatherDisplay:10.37,2013-09-14 06:32:00,
2013-09-14 02:37:00,61.6,99.9,29.79,SW,225,1.7,8.1,0,0.00,CLR,SKC,0.00,WeatherDisplay:10.37,2013-09-14 06:37:00,
2013-09-14 02:42:00,61.6,99.9,29.79,North,360,2.8,4.0,0,0.00,CLR,SKC,0.00,WeatherDisplay:10.37,2013-09-14 06:42:00,
2013-09-14 02:47:00,61.6,99.9,29.79,NNW,337,3.0,5.8,0,0.00,CLR,SKC,0.00,WeatherDisplay:10.37,2013-09-14 06:47:00,
2013-09-14 02:52:00,61.6,99.9,29.79,WNW,292,0.1,4.6,0,0.00,CLR,SKC,0.00,WeatherDisplay:10.37,2013-09-14 06:52:00,
2013-09-14 02:57:00,61.6,99.9,29.79,WSW,247,0.4,3.5,0,0.00,CLR,SKC,0.00,WeatherDisplay:10.37,2013-09-14 06:57:00,
2013-09-14 03:02:00,61.6,99.9,29.79,North,360,0.2,2.3,0,0.00,CLR,SKC,0.00,WeatherDisplay:10.37,2013-09-14 07:02:00,
2013-09-14 03:07:00,61.6,99.9,29.79,NW,315,0.0,0.0,0,0.00,CLR,SKC,0.00,WeatherDisplay:10.37,2013-09-14 07:07:00,
2013-09-14 03:12:00,61.6,99.9,29.79,NNW,337,0.8,4.0,0,0.00,CLR,SKC,0.00,WeatherDisplay:10.37,2013-09-14 07:12:00,
2013-09-14 03:17:00,61.6,99.9,29.79,North,360,0.3,3.5,0,0.00,CLR,SKC,0.00,WeatherDisplay:10.37,2013-09-14 07:17:00,
2013-09-14 03:22:00,61.6,99.9,29.80,NE,45,0.0,0.0,0,0.00,CLR,SKC,0.00,WeatherDisplay:10.37,2013-09-14 07:22:00,
2013-09-14 03:27:00,61.6,99.9,29.80,NW,315,0.0,3.5,0,0.00,CLR,SKC,0.00,WeatherDisplay:10.37,2013-09-14 07:27:00,
2013-09-14 03:32:00,61.6,99.9,29.79,NNW,337,0.0,0.0,0,0.00,CLR,SKC,0.00,WeatherDisplay:10.37,2013-09-14 07:32:00,
2013-09-14 03:37:00,61.6,99.9,29.79,NNW,337,0.4,1.0,0,0.00,CLR,SKC,0.00,WeatherDisplay:10.37,2013-09-14 07:37:00,
2013-09-14 03:42:00,61.6,99.9,29.80,WNW,292,1.0,3.5,0,0.00,CLR,SKC,0.00,WeatherDisplay:10.37,2013-09-14 07:42:00,
2013-09-14 03:47:00,61.6,99.9,29.80,NNW,337,1.0,3.5,0,0.00,CLR,SKC,0.00,WeatherDisplay:10.37,2013-09-14 07:47:00,
2013-09-14 03:52:00,61.6,99.9,29.80,NNW,337,0.0,2.3,0,0.00,CLR,SKC,0.00,WeatherDisplay:10.37,2013-09-14 07:52:00,
2013-09-14 03:57:00,61.6,99.9,29.80,WNW,292,1.1,5.8,0,0.00,CLR,SKC,0.00,WeatherDisplay:10.37,2013-09-14 07:57:00,
2013-09-14 04:02:00,61.6,99.9,29.80,WNW,292,0.7,4.6,0,0.00,CLR,SKC,0.00,WeatherDisplay:10.37,2013-09-14 08:02:00,
2013-09-14 04:07:00,60.6,99.9,29.80,WNW,292,2.6,3.5,0,0.00,CLR,SKC,0.00,WeatherDisplay:10.37,2013-09-14 08:07:00,
2013-09-14 04:12:00,60.6,99.9,29.80,NNW,337,0.8,1.2,0,0.00,CLR,SKC,0.00,WeatherDisplay:10.37,2013-09-14 08:12:00,
2013-09-14 04:17:00,60.6,99.9,29.80,NNW,337,0.0,3.0,0,0.00,CLR,SKC,0.00,WeatherDisplay:10.37,2013-09-14 08:17:00,
2013-09-14 04:22:00,60.6,99.9,29.80,North,360,0.3,3.5,0,0.00,CLR,SKC,0.00,WeatherDisplay:10.37,2013-09-14 08:22:00,
2013-09-14 04:27:00,60.6,99.9,29.80,NNW,337,0.1,3.5,0,0.00,CLR,SKC,0.00,WeatherDisplay:10.37,2013-09-14 08:27:00,
2013-09-14 04:32:00,60.6,99.9,29.80,WNW,292,0.2,2.3,0,0.00,CLR,SKC,0.00,WeatherDisplay:10.37,2013-09-14 08:32:00,
2013-09-14 04:37:00,60.6,99.9,29.80,NNW,337,0.0,1.2,0,0.00,CLR,SKC,0.00,WeatherDisplay:10.37,2013-09-14 08:37:00,
2013-09-14 04:42:00,60.6,99.9,29.81,WNW,292,0.0,0.0,0,0.00,CLR,SKC,0.00,WeatherDisplay:10.37,2013-09-14 08:42:00,
2013-09-14 04:47:00,59.6,99.9,29.81,NW,315,0.0,2.3,0,0.00,CLR,SKC,0.00,WeatherDisplay:10.37,2013-09-14 08:47:00,
2013-09-14 04:52:00,59.6,99.9,29.81,NNE,22,0.0,0.0,0,0.00,CLR,SKC,0.00,WeatherDisplay:10.37,2013-09-14 08:52:00,
2013-09-14 04:57:00,59.6,99.9,29.81,NNE,22,0.2,0.0,0,0.00,CLR,SKC,0.00,WeatherDisplay:10.37,2013-09-14 08:57:00,
2013-09-14 05:02:00,59.6,99.9,29.81,NW,315,0.2,3.5,0,0.00,CLR,SKC,0.00,WeatherDisplay:10.37,2013-09-14 09:02:00,
2013-09-14 05:07:00,59.6,99.9,29.81,NNW,337,0.0,0.0,0,0.00,CLR,SKC,0.00,WeatherDisplay:10.37,2013-09-14 09:07:00,
2013-09-14 05:12:00,59.6,99.9,29.82,North,360,0.0,0.0,0,0.00,CLR,SKC,0.00,WeatherDisplay:10.37,2013-09-14 09:12:00,
2013-09-14 05:17:00,59.6,99.9,29.82,NNE,22,0.0,0.0,0,0.00,CLR,SKC,0.00,WeatherDisplay:10.37,2013-09-14 09:17:00,
2013-09-14 05:22:00,60.6,99.9,29.83,North,360,0.0,0.0,0,0.00,CLR,SKC,0.00,WeatherDisplay:10.37,2013-09-14 09:22:00,
2013-09-14 05:27:00,60.6,99.9,29.83,NW,315,0.6,3.5,0,0.00,CLR,SKC,0.00,WeatherDisplay:10.37,2013-09-14 09:27:00,
2013-09-14 05:32:00,60.6,99.9,29.83,East,90,1.4,2.3,0,0.00,CLR,SKC,0.00,WeatherDisplay:10.37,2013-09-14 09:32:00,
2013-09-14 05:37:00,60.6,99.9,29.83,NNE,22,0.0,0.0,0,0.00,CLR,SKC,0.00,WeatherDisplay:10.37,2013-09-14 09:37:00,
2013-09-14 05:42:00,60.6,99.9,29.82,North,360,0.7,3.0,0,0.00,CLR,SKC,0.00,WeatherDisplay:10.37,2013-09-14 09:42:00,
2013-09-14 05:47:00,59.6,99.9,29.82,North,360,0.0,0.0,0,0.00,CLR,SKC,0.00,WeatherDisplay:10.37,2013-09-14 09:47:00,
2013-09-14 05:52:00,59.6,99.9,29.83,WSW,247,0.0,0.0,0,0.00,CLR,SKC,0.00,WeatherDisplay:10.37,2013-09-14 09:52:00,
2013-09-14 05:57:00,59.6,99.9,29.83,WNW,292,0.0,0.0,0,0.00,CLR,SKC,0.00,WeatherDisplay:10.37,2013-09-14 09:57:00,
2013-09-14 06:02:00,59.6,99.9,29.83,NE,45,0.0,0.0,0,0.00,CLR,SKC,0.00,WeatherDisplay:10.37,2013-09-14 10:02:00,
2013-09-14 06:07:00,59.6,99.9,29.83,NE,45,0.0,0.0,0,0.00,CLR,SKC,0.00,WeatherDisplay:10.37,2013-09-14 10:07:00,
2013-09-14 06:12:00,59.6,99.9,29.83,NNW,337,0.0,0.0,0,0.00,CLR,SKC,0.00,WeatherDisplay:10.37,2013-09-14 10:12:00,
2013-09-14 06:17:00,59.6,99.9,29.83,NNW,337,0.0,0.0,0,0.00,CLR,SKC,0.00,WeatherDisplay:10.37,2013-09-14 10:17:00,
2013-09-14 06:22:00,60.6,99.9,29.84,NNW,337,0.0,0.0,0,0.00,CLR,SKC,0.00,WeatherDisplay:10.37,2013-09-14 10:22:00,
2013-09-14 06:27:00,59.6,99.9,29.84,NNW,337,0.0,0.0,0,0.00,CLR,SKC,0.00,WeatherDisplay:10.37,2013-09-14 10:27:00,
2013-09-14 06:32:00,60.6,99.9,29.84,NNW,337,0.0,0.0,0,0.00,CLR,SKC,0.00,WeatherDisplay:10.37,2013-09-14 10:32:00,
2013-09-14 06:37:00,59.6,99.9,29.84,North,360,0.0,0.0,0,0.00,CLR,SKC,0.00,WeatherDisplay:10.37,2013-09-14 10:37:00,
2013-09-14 06:42:00,59.6,99.9,29.84,North,360,0.0,0.0,0,0.00,CLR,SKC,0.00,WeatherDisplay:10.37,2013-09-14 10:42:00,
2013-09-14 06:47:00,59.6,99.9,29.84,NNW,337,0.0,0.0,0,0.00,CLR,SKC,0.00,WeatherDisplay:10.37,2013-09-14 10:47:00,
2013-09-14 06:52:00,59.6,99.9,29.85,NNW,337,0.0,0.0,0,0.00,CLR,SKC,0.00,WeatherDisplay:10.37,2013-09-14 10:52:00,
2013-09-14 06:57:00,59.6,99.9,29.85,NNW,337,0.0,0.0,0,0.00,CLR,SKC,0.00,WeatherDisplay:10.37,2013-09-14 10:57:00,
2013-09-14 07:02:00,60.6,99.9,29.85,NNW,337,0.0,0.0,0,0.00,CLR,SKC,0.00,WeatherDisplay:10.37,2013-09-14 11:02:00,
2013-09-14 07:07:00,60.6,99.9,29.85,NNW,337,0.0,0.0,0,0.00,CLR,SKC,0.00,WeatherDisplay:10.37,2013-09-14 11:07:00,
2013-09-14 07:12:00,60.6,99.9,29.85,NNW,337,0.0,0.0,0,0.00,CLR,SKC,0.00,WeatherDisplay:10.37,2013-09-14 11:12:00,
2013-09-14 07:17:00,60.6,99.9,29.85,NNW,337,0.0,0.0,0,0.00,CLR,SKC,0.00,WeatherDisplay:10.37,2013-09-14 11:17:00,
2013-09-14 07:22:00,60.6,99.9,29.85,NNW,337,0.0,0.0,0,0.00,CLR,SKC,0.00,WeatherDisplay:10.37,2013-09-14 11:22:00,
2013-09-14 07:27:00,60.6,99.9,29.85,WNW,292,0.0,0.0,0,0.00,CLR,SKC,0.00,WeatherDisplay:10.37,2013-09-14 11:27:00,
2013-09-14 07:32:00,60.6,99.9,29.86,NNW,337,0.0,0.0,0,0.00,CLR,SKC,0.00,WeatherDisplay:10.37,2013-09-14 11:32:00,
2013-09-14 07:37:00,60.6,99.9,29.86,NNW,337,0.1,0.0,0,0.00,CLR,SKC,0.00,WeatherDisplay:10.37,2013-09-14 11:37:00,
2013-09-14 07:42:00,61.6,99.9,29.86,WNW,292,0.0,1.2,0,0.00,CLR,SKC,0.00,WeatherDisplay:10.37,2013-09-14 11:42:00,
2013-09-14 07:47:00,60.6,99.9,29.86,NNE,22,1.4,3.5,0,0.00,CLR,SKC,0.00,WeatherDisplay:10.37,2013-09-14 11:47:00,
2013-09-14 07:52:00,60.6,99.9,29.87,WSW,247,0.2,4.6,0,0.00,CLR,SKC,0.00,WeatherDisplay:10.37,2013-09-14 11:52:00,
2013-09-14 07:57:00,61.6,99.9,29.87,NW,315,0.0,0.0,0,0.00,CLR,SKC,0.00,WeatherDisplay:10.37,2013-09-14 11:57:00,
2013-09-14 08:02:00,61.6,99.9,29.87,North,360,1.2,5.0,0,0.00,CLR,SKC,0.00,WeatherDisplay:10.37,2013-09-14 12:02:00,
2013-09-14 08:07:00,61.6,99.9,29.87,North,360,0.9,5.8,0,0.00,CLR,SKC,0.00,WeatherDisplay:10.37,2013-09-14 12:07:00,
2013-09-14 08:12:00,61.6,99.9,29.87,NNW,337,0.0,3.5,0,0.00,CLR,SKC,0.00,WeatherDisplay:10.37,2013-09-14 12:12:00,
2013-09-14 08:17:00,61.6,99.9,29.87,WNW,292,1.8,3.5,0,0.00,CLR,SKC,0.00,WeatherDisplay:10.37,2013-09-14 12:17:00,
2013-09-14 08:22:00,61.6,99.9,29.87,NNW,337,1.2,1.2,0,0.00,CLR,SKC,0.00,WeatherDisplay:10.37,2013-09-14 12:22:00,
2013-09-14 08:27:00,62.6,99.9,29.87,North,360,1.1,1.1,0,0.00,CLR,SKC,0.00,WeatherDisplay:10.37,2013-09-14 12:27:00,
2013-09-14 08:32:00,62.6,99.9,29.87,NNW,337,2.1,3.0,0,0.00,CLR,SKC,0.00,WeatherDisplay:10.37,2013-09-14 12:32:00,
2013-09-14 08:37:00,62.6,99.9,29.87,WNW,292,0.0,2.3,0,0.00,CLR,SKC,0.00,WeatherDisplay:10.37,2013-09-14 12:37:00,
2013-09-14 08:42:00,62.6,99.9,29.87,West,270,0.0,0.0,0,0.00,CLR,SKC,0.00,WeatherDisplay:10.37,2013-09-14 12:42:00,
2013-09-14 08:47:00,62.6,99.9,29.87,NW,315,0.0,0.0,0,0.00,CLR,SKC,0.00,WeatherDisplay:10.37,2013-09-14 12:47:00,
2013-09-14 08:52:00,62.6,99.9,29.88,NW,315,0.2,2.3,0,0.00,CLR,SKC,0.00,WeatherDisplay:10.37,2013-09-14 12:52:00,
2013-09-14 08:57:00,62.6,99.9,29.88,NE,45,0.2,3.0,0,0.00,CLR,SKC,0.00,WeatherDisplay:10.37,2013-09-14 12:57:00,
2013-09-14 09:02:00,62.6,99.9,29.88,NW,315,1.8,4.6,0,0.00,CLR,SKC,0.00,WeatherDisplay:10.37,2013-09-14 13:02:00,
2013-09-14 09:07:00,62.6,99.9,29.88,ENE,67,0.0,0.0,0,0.00,CLR,SKC,0.00,WeatherDisplay:10.37,2013-09-14 13:07:00,
2013-09-14 09:12:00,62.6,99.9,29.89,SW,225,0.3,3.5,0,0.00,CLR,SKC,0.00,WeatherDisplay:10.37,2013-09-14 13:12:00,
2013-09-14 09:17:00,62.6,99.9,29.89,WSW,247,0.0,0.0,0,0.00,CLR,SKC,0.00,WeatherDisplay:10.37,2013-09-14 13:17:00,
2013-09-14 09:22:00,62.6,99.9,29.89,North,360,0.8,3.5,0,0.00,CLR,SKC,0.00,WeatherDisplay:10.37,2013-09-14 13:22:00,
2013-09-14 09:27:00,62.6,99.9,29.89,West,270,0.0,0.0,0,0.00,CLR,SKC,0.00,WeatherDisplay:10.37,2013-09-14 13:27:00,
2013-09-14 09:32:00,62.6,99.9,29.89,NW,315,0.2,2.3,0,0.00,CLR,SKC,0.00,WeatherDisplay:10.37,2013-09-14 13:32:00,
2013-09-14 09:37:00,62.6,99.9,29.89,West,270,0.2,2.3,0,0.00,CLR,SKC,0.00,WeatherDisplay:10.37,2013-09-14 13:37:00,
2013-09-14 09:42:00,62.6,99.9,29.90,WSW,247,0.0,0.0,0,0.00,CLR,SKC,0.00,WeatherDisplay:10.37,2013-09-14 13:42:00,
2013-09-14 09:47:00,63.6,99.9,29.90,West,270,0.0,0.0,0,0.00,CLR,SKC,0.00,WeatherDisplay:10.37,2013-09-14 13:47:00,
2013-09-14 09:52:00,63.6,99.9,29.90,WSW,247,0.3,2.3,0,0.00,CLR,SKC,0.00,WeatherDisplay:10.37,2013-09-14 13:52:00,
2013-09-14 09:57:00,63.6,99.9,29.90,WNW,292,0.5,2.3,0,0.00,CLR,SKC,0.00,WeatherDisplay:10.37,2013-09-14 13:57:00,
2013-09-14 10:02:00,63.6,99.9,29.91,ENE,67,0.0,0.0,0,0.00,CLR,SKC,0.00,WeatherDisplay:10.37,2013-09-14 14:02:00,
2013-09-14 10:07:00,63.6,99.9,29.91,West,270,0.0,0.0,0,0.00,CLR,SKC,0.00,WeatherDisplay:10.37,2013-09-14 14:07:00,
2013-09-14 10:12:00,63.6,99.9,29.91,WSW,247,0.4,4.6,0,0.00,CLR,SKC,0.00,WeatherDisplay:10.37,2013-09-14 14:12:00,
2013-09-14 10:17:00,63.6,99.9,29.91,NNW,337,0.9,3.5,0,0.00,CLR,SKC,0.00,WeatherDisplay:10.37,2013-09-14 14:17:00,
2013-09-14 10:23:00,63.6,-8.7,29.91,NW,315,0.9,3.5,5,0.00,CLR,SKC,0.00,WeatherDisplay:10.37,2013-09-14 14:23:00,
2013-09-14 10:28:00,64.6,1.9,29.91,NW,315,1.1,3.5,8,0.00,CLR,SKC,0.00,WeatherDisplay:10.37,2013-09-14 14:28:00,
2013-09-14 10:33:00,65.6,5.2,29.91,SSW,202,0.0,2.3,9,0.00,CLR,SKC,0.00,WeatherDisplay:10.37,2013-09-14 14:33:00,
2013-09-14 10:38:00,64.6,18.8,29.91,WNW,292,0.6,3.5,17,0.00,CLR,SKC,0.00,WeatherDisplay:10.37,2013-09-14 14:38:00,
2013-09-14 10:43:00,64.6,28.9,29.91,NNW,337,1.4,5.8,26,0.00,CLR,SKC,0.00,WeatherDisplay:10.37,2013-09-14 14:43:00,
2013-09-14 10:48:00,64.6,29.8,29.91,WNW,292,0.3,3.5,27,0.00,CLR,SKC,0.00,WeatherDisplay:10.37,2013-09-14 14:48:00,
2013-09-14 10:53:00,63.6,32.4,29.91,SSW,202,0.5,3.5,31,0.00,CLR,SKC,0.00,WeatherDisplay:10.37,2013-09-14 14:53:00,
2013-09-14 10:58:00,64.6,32.5,29.91,SSW,202,0.0,0.0,30,0.00,CLR,SKC,0.00,WeatherDisplay:10.37,2013-09-14 14:58:00,
2013-09-14 11:03:00,63.6,32.4,29.91,NNW,337,2.5,4.0,31,0.00,CLR,SKC,0.00,WeatherDisplay:10.37,2013-09-14 15:03:00,
2013-09-14 11:08:00,64.6,35.6,29.91,WNW,292,2.3,2.3,34,0.00,CLR,SKC,0.00,WeatherDisplay:10.37,2013-09-14 15:08:00,
2013-09-14 11:13:00,64.6,34.8,29.91,North,360,0.3,6.0,33,0.00,CLR,SKC,0.00,WeatherDisplay:10.37,2013-09-14 15:13:00,
2013-09-14 11:18:00,64.6,37.0,29.91,West,270,0.5,3.5,36,0.00,CLR,SKC,0.00,WeatherDisplay:10.37,2013-09-14 15:18:00,
2013-09-14 11:23:00,64.6,37.0,29.92,WNW,292,0.3,3.5,36,0.00,CLR,SKC,0.00,WeatherDisplay:10.37,2013-09-14 15:23:00,
2013-09-14 11:28:00,64.6,38.4,29.92,North,360,0.0,2.3,38,0.00,CLR,SKC,0.00,WeatherDisplay:10.37,2013-09-14 15:28:00,
2013-09-14 11:33:00,64.6,39.7,29.93,WNW,292,0.5,3.5,40,0.00,CLR,SKC,0.00,WeatherDisplay:10.37,2013-09-14 15:33:00,
2013-09-14 11:38:00,64.6,39.7,29.93,West,270,0.0,3.5,40,0.00,CLR,SKC,0.00,WeatherDisplay:10.37,2013-09-14 15:38:00,
2013-09-14 11:43:00,64.6,37.7,29.93,SSE,157,0.0,3.5,37,0.00,CLR,SKC,0.00,WeatherDisplay:10.37,2013-09-14 15:43:00,
2013-09-14 11:48:00,65.6,38.6,29.93,South,180,0.0,0.0,37,0.00,CLR,SKC,0.00,WeatherDisplay:10.37,2013-09-14 15:48:00,
2013-09-14 11:53:00,65.6,38.6,29.93,NW,315,0.5,3.5,37,0.00,CLR,SKC,0.00,WeatherDisplay:10.37,2013-09-14 15:53:00,
2013-09-14 11:58:00,65.6,40.0,29.93,West,270,0.0,1.2,39,0.00,CLR,SKC,0.00,WeatherDisplay:10.37,2013-09-14 15:58:00,
2013-09-14 12:03:00,65.6,40.6,29.93,NW,315,0.9,3.0,40,0.00,CLR,SKC,0.00,WeatherDisplay:10.37,2013-09-14 16:03:00,
2013-09-14 12:08:00,65.6,44.8,29.93,WSW,247,0.0,3.5,47,0.00,CLR,SKC,0.00,WeatherDisplay:10.37,2013-09-14 16:08:00,
2013-09-14 12:13:00,66.6,48.4,29.93,NW,315,2.1,3.5,52,0.00,CLR,SKC,0.00,WeatherDisplay:10.37,2013-09-14 16:13:00,
2013-09-14 12:18:00,66.6,50.4,29.93,North,360,0.7,6.0,56,0.00,CLR,SKC,0.00,WeatherDisplay:10.37,2013-09-14 16:18:00,
2013-09-14 12:23:00,66.6,49.9,29.93,West,270,0.6,3.5,55,0.00,CLR,SKC,0.00,WeatherDisplay:10.37,2013-09-14 16:23:00,
2013-09-14 12:28:00,65.6,51.4,29.93,NW,315,0.8,3.5,60,0.00,CLR,SKC,0.00,WeatherDisplay:10.37,2013-09-14 16:28:00,
2013-09-14 12:33:00,65.6,52.2,29.93,NNE,22,0.0,2.3,62,0.00,CLR,SKC,0.00,WeatherDisplay:10.37,2013-09-14 16:33:00,
2013-09-14 12:38:00,65.6,50.9,29.93,NNW,337,2.4,5.0,59,0.00,CLR,SKC,0.00,WeatherDisplay:10.37,2013-09-14 16:38:00,
2013-09-14 12:43:00,66.6,51.8,29.94,North,360,0.2,3.5,59,0.00,CLR,SKC,0.00,WeatherDisplay:10.37,2013-09-14 16:43:00,
2013-09-14 12:48:00,66.6,50.4,29.94,WSW,247,0.3,5.0,56,0.00,CLR,SKC,0.00,WeatherDisplay:10.37,2013-09-14 16:48:00,
2013-09-14 12:53:00,66.6,49.9,29.94,WNW,292,0.5,3.5,55,0.00,CLR,SKC,0.00,WeatherDisplay:10.37,2013-09-14 16:53:00,
2013-09-14 12:58:00,65.6,51.4,29.94,North,360,0.9,3.5,60,0.00,CLR,SKC,0.00,WeatherDisplay:10.37,2013-09-14 16:58:00,
2013-09-14 13:03:00,65.6,52.7,29.93,NNE,22,0.0,3.5,63,0.00,CLR,SKC,0.00,WeatherDisplay:10.37,2013-09-14 17:03:00,
2013-09-14 13:08:00,65.6,52.2,29.93,NNW,337,0.2,3.5,62,0.00,CLR,SKC,0.00,WeatherDisplay:10.37,2013-09-14 17:08:00,
2013-09-14 13:13:00,66.6,53.2,29.93,ESE,112,0.3,3.5,62,0.00,CLR,SKC,0.00,WeatherDisplay:10.37,2013-09-14 17:13:00,
2013-09-14 13:18:00,66.6,53.2,29.93,SW,225,0.7,0.0,62,0.00,CLR,SKC,0.00,WeatherDisplay:10.37,2013-09-14 17:18:00,
2013-09-14 13:23:00,66.6,53.6,29.93,WSW,247,0.2,2.0,63,0.00,CLR,SKC,0.00,WeatherDisplay:10.37,2013-09-14 17:23:00,
2013-09-14 13:28:00,66.6,53.2,29.93,WSW,247,0.0,1.2,62,0.00,CLR,SKC,0.00,WeatherDisplay:10.37,2013-09-14 17:28:00,
2013-09-14 13:33:00,65.6,54.4,29.94,NNW,337,0.6,5.8,67,0.00,CLR,SKC,0.00,WeatherDisplay:10.37,2013-09-14 17:33:00,
2013-09-14 13:38:00,65.6,54.4,29.94,SW,225,0.4,0.0,67,0.00,CLR,SKC,0.00,WeatherDisplay:10.37,2013-09-14 17:38:00,
2013-09-14 13:43:00,65.6,54.0,29.93,NNW,337,2.1,3.0,66,0.00,CLR,SKC,0.00,WeatherDisplay:10.37,2013-09-14 17:43:00,
2013-09-14 13:48:00,65.6,54.4,29.93,NW,315,0.7,0.0,67,0.00,CLR,SKC,0.00,WeatherDisplay:10.37,2013-09-14 17:48:00,
2013-09-14 13:53:00,66.6,55.3,29.93,SW,225,0.9,3.5,67,0.00,CLR,SKC,0.00,WeatherDisplay:10.37,2013-09-14 17:53:00,
2013-09-14 13:58:00,66.6,54.5,29.93,WSW,247,0.2,2.3,65,0.00,CLR,SKC,0.00,WeatherDisplay:10.37,2013-09-14 17:58:00,
2013-09-14 14:03:00,66.6,54.5,29.93,West,270,0.0,0.0,65,0.00,CLR,SKC,0.00,WeatherDisplay:10.37,2013-09-14 18:03:00,
2013-09-14 14:08:00,66.6,54.9,29.93,NNW,337,0.5,3.5,66,0.00,CLR,SKC,0.00,WeatherDisplay:10.37,2013-09-14 18:08:00,
2013-09-14 14:13:00,66.6,55.3,29.94,WSW,247,0.0,0.0,67,0.00,CLR,SKC,0.00,WeatherDisplay:10.37,2013-09-14 18:13:00,
2013-09-14 14:18:00,65.6,55.2,29.94,NW,315,1.6,4.6,69,0.00,CLR,SKC,0.00,WeatherDisplay:10.37,2013-09-14 18:18:00,
2013-09-14 14:23:00,66.6,56.5,29.94,SW,225,0.0,0.0,70,0.00,CLR,SKC,0.00,WeatherDisplay:10.37,2013-09-14 18:23:00,
2013-09-14 14:28:00,67.6,56.7,29.94,SSW,202,0.0,0.0,68,0.00,CLR,SKC,0.00,WeatherDisplay:10.37,2013-09-14 18:28:00,
2013-09-14 14:33:00,66.6,55.7,29.94,NNW,337,1.7,4.6,68,0.00,CLR,SKC,0.00,WeatherDisplay:10.37,2013-09-14 18:33:00,
2013-09-14 14:38:00,66.6,56.5,29.94,SSW,202,1.4,3.5,70,0.00,CLR,SKC,0.00,WeatherDisplay:10.37,2013-09-14 18:38:00,
2013-09-14 14:43:00,66.6,56.5,29.94,WSW,247,0.3,6.0,70,0.00,CLR,SKC,0.00,WeatherDisplay:10.37,2013-09-14 18:43:00,
2013-09-14 14:48:00,66.6,56.5,29.94,NW,315,0.0,2.3,70,0.00,CLR,SKC,0.00,WeatherDisplay:10.37,2013-09-14 18:48:00,
2013-09-14 14:53:00,66.6,56.5,29.94,SW,225,1.3,4.6,70,0.00,CLR,SKC,0.00,WeatherDisplay:10.37,2013-09-14 18:53:00,
2013-09-14 14:58:00,66.6,56.5,29.94,West,270,0.2,4.0,70,0.00,CLR,SKC,0.00,WeatherDisplay:10.37,2013-09-14 18:58:00,
2013-09-14 15:03:00,65.6,56.0,29.94,NNE,22,0.6,3.5,71,0.00,CLR,SKC,0.00,WeatherDisplay:10.37,2013-09-14 19:03:00,
2013-09-14 15:08:00,65.6,56.0,29.94,West,270,0.0,0.0,71,0.00,CLR,SKC,0.00,WeatherDisplay:10.37,2013-09-14 19:08:00,
2013-09-14 15:13:00,65.6,56.3,29.94,SW,225,1.9,8.1,72,0.00,CLR,SKC,0.00,WeatherDisplay:10.37,2013-09-14 19:13:00,
2013-09-14 15:18:00,66.6,57.3,29.94,SW,225,0.2,2.3,72,0.00,CLR,SKC,0.00,WeatherDisplay:10.37,2013-09-14 19:18:00,
2013-09-14 15:23:00,66.6,56.9,29.94,SW,225,1.5,4.6,71,0.00,CLR,SKC,0.00,WeatherDisplay:10.37,2013-09-14 19:23:00,
2013-09-14 15:28:00,66.6,56.5,29.94,NNW,337,0.3,3.5,70,0.00,CLR,SKC,0.00,WeatherDisplay:10.37,2013-09-14 19:28:00,
2013-09-14 15:33:00,66.6,56.5,29.94,SW,225,0.4,3.5,70,0.00,CLR,SKC,0.00,WeatherDisplay:10.37,2013-09-14 19:33:00,
2013-09-14 15:38:00,66.6,56.5,29.94,SSW,202,0.6,3.5,70,0.00,CLR,SKC,0.00,WeatherDisplay:10.37,2013-09-14 19:38:00,
2013-09-14 15:43:00,66.6,56.5,29.95,WSW,247,0.3,2.3,70,0.00,CLR,SKC,0.00,WeatherDisplay:10.37,2013-09-14 19:43:00,
2013-09-14 15:48:00,66.6,56.5,29.95,SSW,202,0.0,0.0,70,0.00,CLR,SKC,0.00,WeatherDisplay:10.37,2013-09-14 19:48:00,
2013-09-14 15:53:00,65.6,55.6,29.95,WSW,247,2.1,4.0,70,0.00,CLR,SKC,0.00,WeatherDisplay:10.37,2013-09-14 19:53:00,
2013-09-14 15:58:00,65.6,56.0,29.95,North,360,0.0,0.0,71,0.00,CLR,SKC,0.00,WeatherDisplay:10.37,2013-09-14 19:58:00,
2013-09-14 16:03:00,66.6,56.9,29.95,SSW,202,0.8,3.5,71,0.00,CLR,SKC,0.00,WeatherDisplay:10.37,2013-09-14 20:03:00,
2013-09-14 16:08:00,66.6,56.5,29.95,WSW,247,0.7,3.5,70,0.00,CLR,SKC,0.00,WeatherDisplay:10.37,2013-09-14 20:08:00,
2013-09-14 16:13:00,65.6,56.0,29.95,South,180,0.0,0.0,71,0.00,CLR,SKC,0.00,WeatherDisplay:10.37,2013-09-14 20:13:00,
2013-09-14 16:18:00,65.6,56.0,29.95,South,180,0.8,3.5,71,0.00,CLR,SKC,0.00,WeatherDisplay:10.37,2013-09-14 20:18:00,
2013-09-14 16:23:00,65.6,56.7,29.96,NW,315,0.8,3.5,73,0.00,CLR,SKC,0.00,WeatherDisplay:10.37,2013-09-14 20:23:00,
2013-09-14 16:28:00,65.6,56.7,29.96,West,270,0.0,0.0,73,0.00,CLR,SKC,0.00,WeatherDisplay:10.37,2013-09-14 20:28:00,
2013-09-14 16:33:00,65.6,56.3,29.96,West,270,0.0,0.0,72,0.00,CLR,SKC,0.00,WeatherDisplay:10.37,2013-09-14 20:33:00,
2013-09-14 16:38:00,65.6,57.1,29.96,East,90,0.6,3.5,74,0.00,CLR,SKC,0.00,WeatherDisplay:10.37,2013-09-14 20:38:00,
2013-09-14 16:43:00,65.6,56.3,29.96,NE,45,0.3,3.5,72,0.00,CLR,SKC,0.00,WeatherDisplay:10.37,2013-09-14 20:43:00,
2013-09-14 16:48:00,65.6,55.6,29.96,ENE,67,0.0,0.0,70,0.00,CLR,SKC,0.00,WeatherDisplay:10.37,2013-09-14 20:48:00,
2013-09-14 16:53:00,65.6,54.8,29.97,ESE,112,0.0,0.0,68,0.00,CLR,SKC,0.00,WeatherDisplay:10.37,2013-09-14 20:53:00,
2013-09-14 16:58:00,65.6,53.5,29.97,ESE,112,0.1,1.2,65,0.00,CLR,SKC,0.00,WeatherDisplay:10.37,2013-09-14 20:58:00,
2013-09-14 17:03:00,65.6,53.1,29.97,ESE,112,0.0,0.0,64,0.00,CLR,SKC,0.00,WeatherDisplay:10.37,2013-09-14 21:03:00,
2013-09-14 17:08:00,65.6,52.2,29.97,ESE,112,2.1,3.5,62,0.00,CLR,SKC,0.00,WeatherDisplay:10.37,2013-09-14 21:08:00,
2013-09-14 17:13:00,64.6,50.4,29.97,ESE,112,0.0,0.0,60,0.00,CLR,SKC,0.00,WeatherDisplay:10.37,2013-09-14 21:13:00,
2013-09-14 17:18:00,64.6,50.0,29.97,ESE,112,0.0,0.0,59,0.00,CLR,SKC,0.00,WeatherDisplay:10.37,2013-09-14 21:18:00,
2013-09-14 17:23:00,64.6,50.0,29.98,ESE,112,0.0,0.0,59,0.00,CLR,SKC,0.00,WeatherDisplay:10.37,2013-09-14 21:23:00,
2013-09-14 17:28:00,64.6,50.0,29.98,ESE,112,0.0,0.0,59,0.00,CLR,SKC,0.00,WeatherDisplay:10.37,2013-09-14 21:28:00,
2013-09-14 17:33:00,64.6,49.5,29.98,ESE,112,0.0,0.0,58,0.00,CLR,SKC,0.00,WeatherDisplay:10.37,2013-09-14 21:33:00,
2013-09-14 17:38:00,63.6,47.6,29.98,ESE,112,0.0,0.0,56,0.00,CLR,SKC,0.00,WeatherDisplay:10.37,2013-09-14 21:38:00,
2013-09-14 17:43:00,63.6,46.7,29.99,ESE,112,2.5,3.5,54,0.00,CLR,SKC,0.00,WeatherDisplay:10.37,2013-09-14 21:43:00,
2013-09-14 17:48:00,63.6,45.7,29.99,SE,135,0.7,2.3,52,0.00,CLR,SKC,0.00,WeatherDisplay:10.37,2013-09-14 21:48:00,
2013-09-14 17:53:00,63.6,44.1,29.99,SE,135,0.0,0.0,49,0.00,CLR,SKC,0.00,WeatherDisplay:10.37,2013-09-14 21:53:00,
2013-09-14 17:58:00,63.6,43.0,29.99,SE,135,0.0,0.0,47,0.00,CLR,SKC,0.00,WeatherDisplay:10.37,2013-09-14 21:58:00,
2013-09-14 18:03:00,63.6,42.4,29.99,SE,135,0.0,0.0,46,0.00,CLR,SKC,0.00,WeatherDisplay:10.37,2013-09-14 22:03:00,
2013-09-14 18:08:00,63.6,41.9,29.99,SE,135,0.0,0.0,45,0.00,CLR,SKC,0.00,WeatherDisplay:10.37,2013-09-14 22:08:00,
2013-09-14 18:13:00,63.6,41.3,29.99,SE,135,0.0,0.0,44,0.00,CLR,SKC,0.00,WeatherDisplay:10.37,2013-09-14 22:13:00,
2013-09-14 18:18:00,62.6,40.4,29.99,SE,135,0.0,0.0,44,0.00,CLR,SKC,0.00,WeatherDisplay:10.37,2013-09-14 22:18:00,
2013-09-14 18:23:00,62.6,40.4,29.99,SE,135,0.0,0.0,44,0.00,CLR,SKC,0.00,WeatherDisplay:10.37,2013-09-14 22:23:00,
2013-09-14 18:28:00,62.6,39.8,29.99,SE,135,0.0,0.0,43,0.00,CLR,SKC,0.00,WeatherDisplay:10.37,2013-09-14 22:28:00,
2013-09-14 18:33:00,62.6,39.8,29.99,SE,135,0.0,0.0,43,0.00,CLR,SKC,0.00,WeatherDisplay:10.37,2013-09-14 22:33:00,
2013-09-14 18:38:00,61.6,38.3,29.99,SE,135,0.0,0.0,42,0.00,CLR,SKC,0.00,WeatherDisplay:10.37,2013-09-14 22:38:00,
2013-09-14 18:43:00,61.6,38.3,30.00,SE,135,0.0,0.0,42,0.00,CLR,SKC,0.00,WeatherDisplay:10.37,2013-09-14 22:43:00,
2013-09-14 18:48:00,61.6,36.4,30.00,SE,135,0.0,0.0,39,0.00,CLR,SKC,0.00,WeatherDisplay:10.37,2013-09-14 22:48:00,
2013-09-14 18:53:00,61.6,35.1,30.00,SE,135,0.0,0.0,37,0.00,CLR,SKC,0.00,WeatherDisplay:10.37,2013-09-14 22:53:00,
2013-09-14 18:58:00,60.6,32.1,30.00,SE,135,0.0,0.0,34,0.00,CLR,SKC,0.00,WeatherDisplay:10.37,2013-09-14 22:58:00,
2013-09-14 19:03:00,60.6,29.8,30.00,SE,135,0.0,0.0,31,0.00,CLR,SKC,0.00,WeatherDisplay:10.37,2013-09-14 23:03:00,
2013-09-14 19:08:00,60.6,27.3,30.00,SE,135,0.0,0.0,28,0.00,CLR,SKC,0.00,WeatherDisplay:10.37,2013-09-14 23:08:00,
2013-09-14 19:13:00,60.6,24.6,30.01,SE,135,0.0,0.0,25,0.00,CLR,SKC,0.00,WeatherDisplay:10.37,2013-09-14 23:13:00,
2013-09-14 19:18:00,60.6,20.4,30.01,SE,135,0.0,0.0,21,0.00,CLR,SKC,0.00,WeatherDisplay:10.37,2013-09-14 23:18:00,
2013-09-14 19:23:00,60.6,18.1,30.01,SE,135,0.0,0.0,19,0.00,CLR,SKC,0.00,WeatherDisplay:10.37,2013-09-14 23:23:00,
2013-09-14 19:28:00,60.6,15.5,30.01,SE,135,0.0,0.0,17,0.00,CLR,SKC,0.00,WeatherDisplay:10.37,2013-09-14 23:28:00,
2013-09-14 19:33:00,59.6,13.3,30.01,SE,135,0.0,0.0,16,0.00,CLR,SKC,0.00,WeatherDisplay:10.37,2013-09-14 23:33:00,
2013-09-14 19:38:00,60.6,12.6,30.01,SE,135,0.0,0.0,15,0.00,CLR,SKC,0.00,WeatherDisplay:10.37,2013-09-14 23:38:00,
2013-09-14 19:43:00,60.6,11.1,30.02,SE,135,0.0,0.0,14,0.00,CLR,SKC,0.00,WeatherDisplay:10.37,2013-09-14 23:43:00,
2013-09-14 19:48:00,59.6,6.9,30.02,SE,135,0.0,0.0,12,0.00,CLR,SKC,0.00,WeatherDisplay:10.37,2013-09-14 23:48:00,
2013-09-14 19:53:00,59.6,4.9,30.02,SE,135,0.0,0.0,11,0.00,CLR,SKC,0.00,WeatherDisplay:10.37,2013-09-14 23:53:00,
2013-09-14 19:58:00,59.6,2.9,30.02,SE,135,0.0,0.0,10,0.00,CLR,SKC,0.00,WeatherDisplay:10.37,2013-09-14 23:58:00,
2013-09-14 20:03:00,59.6,-1.9,30.03,SE,135,0.0,0.0,8,0.00,CLR,SKC,0.00,WeatherDisplay:10.37,2013-09-15 00:03:00,
2013-09-14 20:08:00,59.6,-4.7,30.03,SE,135,0.0,0.0,7,0.00,CLR,SKC,0.00,WeatherDisplay:10.37,2013-09-15 00:08:00,
2013-09-14 20:13:00,59.6,-7.9,30.03,SE,135,0.0,0.0,6,0.00,CLR,SKC,0.00,WeatherDisplay:10.37,2013-09-15 00:13:00,
2013-09-14 20:18:00,59.6,-16.0,30.03,SE,135,0.0,0.0,4,0.00,CLR,SKC,0.00,WeatherDisplay:10.37,2013-09-15 00:18:00,
2013-09-14 20:23:00,59.6,-21.6,30.03,SE,135,0.0,0.0,3,0.00,CLR,SKC,0.00,WeatherDisplay:10.37,2013-09-15 00:23:00,
2013-09-14 20:28:00,59.6,-41.5,30.03,SE,135,0.0,0.0,1,0.00,CLR,SKC,0.00,WeatherDisplay:10.37,2013-09-15 00:28:00,
2013-09-14 20:33:00,58.6,99.9,30.03,SE,135,0.0,0.0,0,0.00,CLR,SKC,0.00,WeatherDisplay:10.37,2013-09-15 00:33:00,
2013-09-14 20:38:00,58.6,99.9,30.03,SE,135,0.0,0.0,0,0.00,CLR,SKC,0.00,WeatherDisplay:10.37,2013-09-15 00:38:00,
2013-09-14 20:43:00,58.6,99.9,30.04,SE,135,0.0,0.0,0,0.00,CLR,SKC,0.00,WeatherDisplay:10.37,2013-09-15 00:43:00,
2013-09-14 20:48:00,58.6,99.9,30.04,SE,135,0.0,0.0,0,0.00,CLR,SKC,0.00,WeatherDisplay:10.37,2013-09-15 00:48:00,
2013-09-14 20:53:00,58.6,99.9,30.04,SE,135,0.0,0.0,0,0.00,CLR,SKC,0.00,WeatherDisplay:10.37,2013-09-15 00:53:00,
2013-09-14 20:58:00,58.6,99.9,30.04,SE,135,0.0,0.0,0,0.00,CLR,SKC,0.00,WeatherDisplay:10.37,2013-09-15 00:58:00,
2013-09-14 21:03:00,58.6,99.9,30.04,SE,135,0.0,0.0,0,0.00,CLR,SKC,0.00,WeatherDisplay:10.37,2013-09-15 01:03:00,
2013-09-14 21:08:00,58.6,99.9,30.04,SE,135,0.0,0.0,0,0.00,CLR,SKC,0.00,WeatherDisplay:10.37,2013-09-15 01:08:00,
2013-09-14 21:13:00,58.6,99.9,30.04,SE,135,0.0,0.0,0,0.00,CLR,SKC,0.00,WeatherDisplay:10.37,2013-09-15 01:13:00,
2013-09-14 21:18:00,58.6,99.9,30.04,SE,135,0.0,0.0,0,0.00,CLR,SKC,0.00,WeatherDisplay:10.37,2013-09-15 01:18:00,
2013-09-14 21:23:00,58.6,99.9,30.04,SE,135,0.0,0.0,0,0.00,CLR,SKC,0.00,WeatherDisplay:10.37,2013-09-15 01:23:00,
2013-09-14 21:28:00,58.6,99.9,30.04,SE,135,0.0,0.0,0,0.00,CLR,SKC,0.00,WeatherDisplay:10.37,2013-09-15 01:28:00,
2013-09-14 21:33:00,58.6,99.9,30.05,SE,135,0.0,0.0,0,0.00,CLR,SKC,0.00,WeatherDisplay:10.37,2013-09-15 01:33:00,
2013-09-14 21:38:00,58.6,99.9,30.05,SE,135,0.0,0.0,0,0.00,CLR,SKC,0.00,WeatherDisplay:10.37,2013-09-15 01:38:00,
2013-09-14 21:43:00,58.6,99.9,30.05,NNW,337,0.0,0.0,0,0.00,CLR,SKC,0.00,WeatherDisplay:10.37,2013-09-15 01:43:00,
2013-09-14 21:48:00,58.6,99.9,30.05,NNW,337,0.3,0.0,0,0.00,CLR,SKC,0.00,WeatherDisplay:10.37,2013-09-15 01:48:00,
2013-09-14 21:53:00,58.6,99.9,30.05,NW,315,0.3,1.0,0,0.00,CLR,SKC,0.00,WeatherDisplay:10.37,2013-09-15 01:53:00,
2013-09-14 21:58:00,58.6,99.9,30.05,North,360,0.8,7.0,0,0.00,CLR,SKC,0.00,WeatherDisplay:10.37,2013-09-15 01:58:00,
2013-09-14 22:03:00,58.6,99.9,30.05,NNW,337,2.0,3.5,0,0.00,CLR,SKC,0.00,WeatherDisplay:10.37,2013-09-15 02:03:00,
2013-09-14 22:08:00,59.6,99.9,30.05,NNW,337,0.4,2.3,0,0.00,CLR,SKC,0.00,WeatherDisplay:10.37,2013-09-15 02:08:00,
2013-09-14 22:13:00,59.6,99.9,30.05,NNW,337,2.5,3.5,0,0.00,CLR,SKC,0.00,WeatherDisplay:10.37,2013-09-15 02:13:00,
2013-09-14 22:18:00,58.6,99.9,30.05,ENE,67,0.4,2.3,0,0.00,CLR,SKC,0.00,WeatherDisplay:10.37,2013-09-15 02:18:00,
2013-09-14 22:23:00,58.6,99.9,30.06,North,360,0.0,0.0,0,0.00,CLR,SKC,0.00,WeatherDisplay:10.37,2013-09-15 02:23:00,
2013-09-14 22:28:00,58.6,99.9,30.06,NNE,22,0.0,0.0,0,0.00,CLR,SKC,0.00,WeatherDisplay:10.37,2013-09-15 02:28:00,
2013-09-14 22:33:00,58.6,99.9,30.06,NNW,337,0.0,0.0,0,0.00,CLR,SKC,0.00,WeatherDisplay:10.37,2013-09-15 02:33:00,
2013-09-14 22:38:00,58.6,99.9,30.06,North,360,0.0,0.0,0,0.00,CLR,SKC,0.00,WeatherDisplay:10.37,2013-09-15 02:38:00,
2013-09-14 22:43:00,58.6,99.9,30.06,NNE,22,0.0,0.0,0,0.00,CLR,SKC,0.00,WeatherDisplay:10.37,2013-09-15 02:43:00,
2013-09-14 22:48:00,58.6,99.9,30.06,NNW,337,0.0,2.3,0,0.00,CLR,SKC,0.00,WeatherDisplay:10.37,2013-09-15 02:48:00,
2013-09-14 22:53:00,58.6,99.9,30.06,NE,45,0.0,0.0,0,0.00,CLR,SKC,0.00,WeatherDisplay:10.37,2013-09-15 02:53:00,
2013-09-14 22:58:00,58.6,99.9,30.06,NNW,337,0.0,0.0,0,0.00,CLR,SKC,0.00,WeatherDisplay:10.37,2013-09-15 02:58:00,
2013-09-14 23:03:00,58.6,99.9,30.06,NNE,22,0.2,2.3,0,0.00,CLR,SKC,0.00,WeatherDisplay:10.37,2013-09-15 03:03:00,
2013-09-14 23:08:00,57.6,99.9,30.06,NW,315,0.0,0.0,0,0.00,CLR,SKC,0.00,WeatherDisplay:10.37,2013-09-15 03:08:00,
2013-09-14 23:13:00,57.6,99.9,30.06,NW,315,0.0,0.0,0,0.00,CLR,SKC,0.00,WeatherDisplay:10.37,2013-09-15 03:13:00,
2013-09-14 23:18:00,57.6,99.9,30.06,NNW,337,0.5,3.5,0,0.00,CLR,SKC,0.00,WeatherDisplay:10.37,2013-09-15 03:18:00,
2013-09-14 23:23:00,57.6,99.9,30.06,WNW,292,0.1,1.0,0,0.00,CLR,SKC,0.00,WeatherDisplay:10.37,2013-09-15 03:23:00,
2013-09-14 23:28:00,57.6,99.9,30.06,WNW,292,0.0,0.0,0,0.00,CLR,SKC,0.00,WeatherDisplay:10.37,2013-09-15 03:28:00,
2013-09-14 23:33:00,57.6,99.9,30.07,NW,315,0.0,0.0,0,0.00,CLR,SKC,0.00,WeatherDisplay:10.37,2013-09-15 03:33:00,
2013-09-14 23:38:00,57.6,99.9,30.07,NW,315,0.0,0.0,0,0.00,CLR,SKC,0.00,WeatherDisplay:10.37,2013-09-15 03:38:00,
2013-09-14 23:43:00,57.6,99.9,30.07,NW,315,0.0,0.0,0,0.00,CLR,SKC,0.00,WeatherDisplay:10.37,2013-09-15 03:43:00,
2013-09-14 23:48:00,57.6,99.9,30.07,NNW,337,0.0,0.0,0,0.00,CLR,SKC,0.00,WeatherDisplay:10.37,2013-09-15 03:48:00,
2013-09-14 23:53:00,57.6,99.9,30.07,NNW,337,0.0,0.0,0,0.00,CLR,SKC,0.00,WeatherDisplay:10.37,2013-09-15 03:53:00,
2013-09-14 23:58:00,56.6,99.9,30.07,NNW,337,0.0,0.0,0,0.00,CLR,SKC,0.00,WeatherDisplay:10.37,2013-09-15 03:58:00,